Location: Campestrin
(46.4667°N, 11.7167°E)
Time: 10:23:20
(UTC+00:00)

Cosmos 1953 Rocket - Pass Details

Date: 18 April 2021
Orbit: 603 x 636 km, 82.5° (Epoch: 06 May)

Event Time Altitude Azimuth Distance (km) Brightness Sun altitude
Rises 18:56:09 0° 350° (N) 2,893 7.6 -9.0°
Reaches altitude 10° 18:58:24 10° 349° (N) 1,979 6.7 -9.3°
Maximum altitude 19:02:47 82° 262° (W) 620 3.6 -10.0°
Drops below altitude 10° 19:07:05 10° 176° (S) 1,948 5.8 -10.6°
Sets 19:09:17 0° 175° (S) 2,844 6.6 -11.0°
Enters shadow 19:09:31 -1° 175° (S) 2,940 6.7 -11.0°
